Regional Weather Roundup
Issued by NWS

Home | Current Version | Previous Version | Graphics & Text | Print | Product List | Glossary On
Versions: 1 2 3 4 5 6 7 8 9 10 11 12 13 14 15 16 17 18 19 20 21 22 23 24 25 26 27 28 29 30 31 32 33 34 35 36 37 38 39 40 41 42 43 44 45 46 47 48 49 50
000
ASUS43 KOAX 191010
RWRNE

WEATHER ROUNDUP FOR NEBRASKA
NATIONAL WEATHER SERVICE OMAHA NE
500 AM CDT FRI SEP 19 2014

NOTES: SATELLITE DATA IS BEING USED TO AUGMENT CLOUD COVER ABOVE
       12000 FEET.
       "FAIR" INDICATES FEW OR NO CLOUDS BELOW 12,000 FEET WITH NO
       SIGNIFICANT WEATHER AND/OR OBSTRUCTIONS TO VISIBILITY.

  * THESE STATIONS DO NOT REPORT WEATHER SUCH AS RAIN...SNOW OR FOG.

NEZ001>004-019>022-054>056-191100-
NEBRASKA PANHANDLE

CITY           SKY/WX    TMP DP  RH WIND       PRES   REMARKS
SCOTTSBLUFF    PTCLDY    64  48  56 N6        29.82F
ALLIANCE       PTCLDY    52  51  97 SE12      29.81F
CHADRON        MOCLDY    68  55  63 NE9       29.80R
KIMBALL        CLEAR     68  39  34 S15       29.89S
SIDNEY         CLEAR     63  51  65 SW14      29.89S
$$

NEZ057>060-069>072-079>082-191100-
SOUTHWEST NEBRASKA

CITY           SKY/WX    TMP DP  RH WIND       PRES   REMARKS
NORTH PLATTE   FOG       55  54  96 SE5       29.85S VSB 1/4
IMPERIAL       CLEAR     55  52  89 S5        29.87S
LEXINGTON      CLEAR     64  62  92 S9        29.87R
MCCOOK         CLEAR     55  54  96 E5        29.88S FOG
OGALLALA       FOG       56  56  99 CALM      29.85S VSB 1/4
$$

NEZ005>010-023>029-035>040-094-191100-
NORTH CENTRAL NEBRASKA

CITY           SKY/WX    TMP DP  RH WIND       PRES   REMARKS
VALENTINE      PTCLDY    62  61  96 SW9       29.76S
AINSWORTH      PTCLDY    63  62  97 S17       29.78S
BROKEN BOW     CLEAR     64  62  93 S10       29.84F
O`NEILL        CLOUDY    68  65  90 S14G22    29.81F
ORD            CLOUDY    66  63  90 S10       29.84S
THEDFORD       PTCLDY    63  62  96 S7        29.83S FOG
$$

NEZ041-046>049-061>064-073>077-083>087-191100-
SOUTH CENTRAL NEBRASKA

CITY           SKY/WX    TMP DP  RH WIND       PRES   REMARKS
GRAND ISLAND   CLEAR     66  62  87 S14G22    29.88F
AURORA         PTCLDY    64  64  97 S13G18    29.89S
HASTINGS       CLEAR     64  59  83 S12       29.89F
HEBRON         CLEAR     64  61  89 S8        29.93S
HOLDREGE       CLEAR     62  59  91 S7        29.88F
KEARNEY *      CLEAR     63  61  94 S14       29.88F
YORK           PTCLDY    64  63  94 S12       29.90F
$$

NEZ011>018-030>034-042>045-191100-
NORTHEAST NEBRASKA

CITY           SKY/WX    TMP DP  RH WIND       PRES   REMARKS
NORFOLK        CLOUDY    64  62  93 S15G23    29.87F FOG
ALBION         CLOUDY    64  62  93 S10       29.87F
BLAIR          CLOUDY    63  60  90 S12G17    29.93F FOG
COLUMBUS *     CLOUDY    64  61  88 S12       29.90F
FREMONT        CLOUDY    64  61  91 S12       29.92F FOG
TEKAMAH        CLOUDY    64  60  87 S13       29.92F
WAYNE          CLOUDY    64  62  93 S14       29.88S
$$

NEZ050>053-065>068-078-088>093-191100-
SOUTHEAST NEBRASKA

CITY           SKY/WX    TMP DP  RH WIND       PRES   REMARKS
LINCOLN        CLOUDY    64  61  90 S12       29.95S
OMAHA EPPLEY   CLOUDY    63  59  87 S15       29.95F
BEATRICE       MOCLDY    63  62  96 S9        29.94F
FALLS CITY     CLOUDY    61  61 100 SE7       29.97F FOG
NEBRASKA CITY  CLOUDY    61  60  97 S9        29.97F FOG
PLATTSMOUTH    CLOUDY    61  59  93 SE8       29.96S FOG
$$

NEZ044-045-051>053-067-191100-
OMAHA AREA

CITY           SKY/WX    TMP DP  RH WIND       PRES   REMARKS
OMAHA EPPLEY   CLOUDY    63  59  87 S15       29.95F
BLAIR          CLOUDY    63  60  90 S12G17    29.93F FOG
FREMONT        CLOUDY    64  61  91 S12       29.92F FOG
MILLARD        CLOUDY    63  60  91 SE9       29.94F FOG
OFFUTT AFB     CLOUDY    62  62 100 SE13      29.95F
PLATTSMOUTH    CLOUDY    61  59  93 SE8       29.96S FOG
WAHOO          CLOUDY    63  60  88 S10       29.93S
$$



USA.gov is the U.S. government's official web portal to all federal, state and local government web resources and services.